Location: Unspecified
(0.0000°N, 0.0000°E)
Time: 17:16:48
(UTC+00:00)

deb Delta 126 - Pass Details

Date: 22 February 2026
Orbit: 1485 x 1545 km, 102.1° (Epoch: 6 March)

Event Time Altitude Azimuth Distance (km) Brightness Sun altitude
Rises 03:04:21 0° 20° (NNE) 4,657 ? -46.3°
Enters shadow 03:07:00 - 22° (NNE) 3,734 ? -45.7°
Exits shadow 03:23:04 15° 189° (S) 3,235 ? -41.8°
Drops below altitude 10° 03:24:15 10° 190° (S) 3,639 ? -41.5°
Sets 03:27:03 0° 192° (SSW) 4,617 ? -40.8°
